User: anonymous   Login
Location: 相模原市立博物館
(35.5593°N, 139.3931°E)
Time: 10:33:35
(UTC+09:00)
Language:

NOAA 19 - Orbit

View from above orbital plane
View from above orbital plane
View from above satellite
View from above satellite

Ground track
Ground track

The orbit data is extracted from the following two-line orbital elements,

1 33591U 09005A   22229.47638893  .00000130  00000-0  95242-4 0  9990
2 33591  99.1444 264.8838 0014170  21.0226 339.1524 14.12599502697062
Epoch (UTC): 17 August 2022 11:26:00
Eccentricity: 0.0014170
inclination: 99.1444°
perigee height: 840 km
apogee height: 861 km
right ascension of ascending node: 264.8838°
argument of perigee: 21.0226°
revolutions per day: 14.12599502
mean anomaly at epoch: 339.1524°
orbit number at epoch: 69706

The dashed part of the orbit path shows where the satellite is in the earth's shadow,  

DLR